TimeEST,TemperatureF,Dew PointF,Humidity,Sea Level PressureIn,VisibilityMPH,Wind Direction,Wind SpeedMPH,Gust SpeedMPH,PrecipitationIn,Events,Conditions,WindDirDegrees,DateUTC
12:09 AM,48.2,46.4,93,29.95,7.0,West,9.2,-,N/A,,Overcast,280,2012-12-03 05:09:00
12:32 AM,46.4,44.6,93,29.96,10.0,West,12.7,-,N/A,,Overcast,270,2012-12-03 05:32:00
12:53 AM,46.0,43.0,89,29.99,10.0,West,15.0,-,N/A,,Overcast,280,2012-12-03 05:53:00
1:53 AM,43.0,39.9,89,30.05,10.0,West,10.4,-,N/A,,Overcast,270,2012-12-03 06:53:00
2:53 AM,41.0,37.9,89,30.11,10.0,West,10.4,19.6,N/A,,Overcast,280,2012-12-03 07:53:00
3:53 AM,39.9,36.0,86,30.14,10.0,WNW,10.4,19.6,N/A,,Overcast,290,2012-12-03 08:53:00
4:10 AM,39.2,35.6,87,30.13,10.0,West,10.4,18.4,N/A,,Overcast,280,2012-12-03 09:10:00
4:53 AM,39.0,35.1,86,30.16,10.0,WNW,8.1,-,N/A,,Overcast,290,2012-12-03 09:53:00
5:53 AM,39.0,33.1,79,30.19,10.0,West,5.8,-,N/A,,Overcast,260,2012-12-03 10:53:00
6:53 AM,37.9,33.1,83,30.22,10.0,West,5.8,-,N/A,,Overcast,260,2012-12-03 11:53:00
7:53 AM,35.6,32.0,87,30.23,10.0,SW,5.8,-,N/A,,Overcast,220,2012-12-03 12:53:00
8:53 AM,37.9,34.0,86,30.26,10.0,SW,5.8,-,N/A,,Overcast,220,2012-12-03 13:53:00
9:53 AM,39.2,33.8,81,30.26,10.0,Variable,3.5,-,N/A,,Overcast,0,2012-12-03 14:53:00
10:05 AM,39.2,33.8,81,30.26,10.0,SW,4.6,-,N/A,,Overcast,230,2012-12-03 15:05:00
10:30 AM,39.2,33.8,81,30.27,10.0,WSW,4.6,-,N/A,,Overcast,250,2012-12-03 15:30:00
10:53 AM,39.9,34.0,79,30.28,10.0,WSW,5.8,-,N/A,,Overcast,250,2012-12-03 15:53:00
11:53 AM,41.0,34.0,76,30.25,10.0,West,3.5,-,N/A,,Overcast,260,2012-12-03 16:53:00
12:53 PM,41.0,34.0,76,30.26,10.0,Calm,Calm,-,N/A,,Overcast,0,2012-12-03 17:53:00
1:53 PM,41.0,34.0,76,30.25,10.0,SSW,6.9,-,N/A,,Overcast,200,2012-12-03 18:53:00
2:53 PM,41.0,34.0,76,30.26,10.0,SSW,5.8,-,N/A,,Overcast,200,2012-12-03 19:53:00
3:53 PM,39.9,34.0,79,30.26,10.0,South,3.5,-,N/A,,Overcast,170,2012-12-03 20:53:00
4:53 PM,39.0,34.0,82,30.26,10.0,Calm,Calm,-,N/A,,Overcast,0,2012-12-03 21:53:00
5:53 PM,39.0,33.1,79,30.26,10.0,Calm,Calm,-,N/A,,Overcast,0,2012-12-03 22:53:00
6:53 PM,37.9,34.0,86,30.26,10.0,Calm,Calm,-,N/A,,Overcast,0,2012-12-03 23:53:00
7:53 PM,37.9,34.0,86,30.25,10.0,Calm,Calm,-,N/A,,Overcast,0,2012-12-04 00:53:00
8:53 PM,37.9,34.0,86,30.25,10.0,East,4.6,-,N/A,,Overcast,80,2012-12-04 01:53:00
9:53 PM,39.0,34.0,82,30.23,10.0,Calm,Calm,-,N/A,,Overcast,0,2012-12-04 02:53:00
10:53 PM,37.9,34.0,86,30.21,10.0,Calm,Calm,-,N/A,,Overcast,0,2012-12-04 03:53:00
11:49 PM,35.6,33.8,93,30.19,10.0,NNE,4.6,-,N/A,,Scattered Clouds,30,2012-12-04 04:49:00
11:53 PM,35.1,33.1,92,30.20,10.0,NE,3.5,-,N/A,,Partly Cloudy,40,2012-12-04 04:53:00